Погода в Родниках

Россия / Ставропольский край     45°37′26″N   42°34′59″E
темп.,
°C
ветер,
м/с
пор.,
м/с
влажн.,
%
обл.,
%
осадки,
мм/ч
давл.,
гПа
погр.,
м
20 мая, пт
пт2000:00+9зюз71581100 0.1 1018707
03:00+9з10207798 0.1 1016950
06:00+9з131885100 0.1 10151058
09:00+9з101495100 0.8 10171071
12:00+13зсз9137299 1.4 10171410
15:00+14зсз101273100 3.0 10171493
18:00+13з8128019 0.8 1017937
21:00+10зюз7148620 1.4 1018335
21 мая, сб
сб2100:00+11зюз8168762 0.3 1018499
03:00+10зюз8178452 0.3 1018486
06:00+10з91784100 0.1 1018687
09:00+11з101887100 1.8 1018904
12:00+16з10177059 0.1 10161268
15:00+19з101564100 0.1 10141532
18:00+17з101766100 0.0 1013930
21:00+15з10195798 0.0 1012776
22 мая, вс
вс2200:00+13з92051100 0.0 1011641
03:00+12з821539 0.0 1009625
06:00+13з8206083 0.0 1008583
09:00+17з81658100 0.0 1006855
12:00+20зсз9154998 0.0 10051308
15:00+21зсз912520 0.0 10041428
18:00+17сз56740 0.0 1004575
21:00+11з349228 0.0 100578
23 мая, пн
пн2300:00+13зюз3679100 0.0 1004146
03:00+12юз4884100 0.3 1003220
06:00+12з5118259 0.0 1004378
09:00+17з796499 0.0 10041060
12:00+18з81161100 0.3 10041735
15:00+18з71058100 0.4 10031691
18:00+16з4765100 0.0 10041276
21:00+11з3688100 0.0 100699
24 мая, вт
вт2400:00+10зюз4991100 0.0 1006181
03:00+9з51193100 0.0 1007308
06:00+9зсз6992100 0.0 1008400
09:00+11сз4694100 0.6 1010400
12:00+11ссз2289100 0.8 1012262
15:00+13ссз237275 0.9 1012481
18:00+15сз2367100 0.1 1013901
21:00+11ссз238797 1.0 101580